Fort Wayne, IN

6:32 AM EDT on August 26, 2016 (GMT -0400)
Fort Wayne International

Weather History for KFWA - July, 2013

Change the Weather History Date:

Tuesday, July 9, 2013

  Actual Average Record
Temperature  
Mean Temperature 81 °F 74 °F  
Max Temperature 88 °F 85 °F 102 °F (1936)
Min Temperature 73 °F 63 °F 44 °F (1899)
Degree Days  
Heating Degree Days 0 0  
Month to date heating degree days 0 0  
Since 1 June heating degree days 19 29  
Since 1 July heating degree days 0 0  
Cooling Degree Days 16 9  
Month to date cooling degree days 71 81  
Year to date cooling degree days 365 320  
Since 1 June cooling degree days 260 263  
Growing Degree Days 30 (Base 50)    
Moisture  
Dew Point 73 °F    
Average Humidity 84    
Maximum Humidity 94    
Minimum Humidity 74    
Precipitation  
Precipitation T in 0.15 in 2.60 in (1966)
Month to date precipitation 1.22 1.22  
Year to date precipitation 24.80 20.18  
Snow  
Snow 0.00 in 0.00 in 0.00 in (2002)
Month to date snowfall 0.0 0.0  
Since 1 June snowfall 0.0 0.0  
Since 1 July snowfall 0.0 0.0  
Snow Depth 0.00 in    
Sea Level Pressure  
Sea Level Pressure 29.99 in    
Wind  
Wind Speed 8 mph (WSW)    
Max Wind Speed 16 mph    
Max Gust Speed 23 mph    
Visibility 10 miles    
Events      
T = Trace of Precipitation, MM = Missing Value Source: NWS Daily Summary

Daily Weather History Graph

Daily Weather History Graph

Search for Another Location

Airport or City:

Trip Planner

Search our weather history database for the weather conditions in past years. The results will help you decide how hot, cold, wet, or windy it might be!

Date:

Astronomy

Jul. 09, 2013 Rise Set
Actual Time 6:17 AM EDT 9:14 PM EDT
Civil Twilight 5:44 AM EDT 9:47 PM EDT
Nautical Twilight 5:02 AM EDT 10:28 PM EDT
Astronomical Twilight 4:13 AM EDT 11:17 PM EDT
Moon 7:42 AM EDT (7/9) 9:50 PM EDT (7/9)
Length of Visible Light 16h 02m
Length of Day
14h 57m
New Moon, 2% of the Moon is Illuminated
Jul 9
New Moon
Jul 15
First Quarter
Jul 22
Full
Jul 29
Last Quarter
Aug 6
New

Hourly Weather History & Observations

Time (EDT) Temp. Heat Index Dew Point Humidity Pressure Visibility Wind Dir Wind Speed Gust Speed Precip Events Conditions
12:54 AM 75.9 °F - 73.0 °F 91% 30.01 in 10.0 mi SSW 8.1 mph - N/A   Mostly Cloudy
1:54 AM 75.9 °F - 72.0 °F 87% 30.00 in 10.0 mi SW 9.2 mph - N/A   Mostly Cloudy
2:54 AM 75.0 °F - 72.0 °F 90% 30.00 in 10.0 mi WSW 5.8 mph - N/A   Mostly Cloudy
3:54 AM 75.0 °F - 72.0 °F 90% 30.01 in 10.0 mi WSW 8.1 mph - N/A   Mostly Cloudy
4:54 AM 73.9 °F - 71.1 °F 91% 30.01 in 10.0 mi WSW 5.8 mph - N/A   Scattered Clouds
5:54 AM 73.9 °F - 71.1 °F 91% 30.01 in 8.0 mi WSW 6.9 mph - N/A   Mostly Cloudy
6:54 AM 73.9 °F - 71.1 °F 91% 30.02 in 6.0 mi WSW 6.9 mph - N/A   Mostly Cloudy
7:54 AM 75.0 °F - 72.0 °F 90% 30.02 in 7.0 mi SW 6.9 mph - N/A   Partly Cloudy
8:33 AM 75.2 °F - 71.6 °F 89% 30.04 in 8.0 mi WSW 8.1 mph - N/A   Mostly Cloudy
8:54 AM 77.0 °F - 72.0 °F 84% 30.02 in 9.0 mi WSW 9.2 mph - N/A   Mostly Cloudy
9:19 AM 78.8 °F - 73.4 °F 83% 30.04 in 10.0 mi WSW 6.9 mph - N/A   Scattered Clouds
9:54 AM 81.0 °F 85.8 °F 73.0 °F 77% 30.02 in 10.0 mi WSW 10.4 mph - N/A   Scattered Clouds
10:54 AM 82.9 °F 90.2 °F 75.0 °F 77% 30.01 in 10.0 mi WSW 8.1 mph - N/A   Scattered Clouds
11:54 AM 84.9 °F 93.3 °F 75.0 °F 72% 30.01 in 10.0 mi WSW 8.1 mph - N/A   Scattered Clouds
12:40 PM 86.0 °F 95.1 °F 75.2 °F 70% 30.03 in 10.0 mi WSW 9.2 mph - N/A   Mostly Cloudy
12:54 PM 86.0 °F 93.8 °F 73.9 °F 67% 30.00 in 10.0 mi West 11.5 mph - N/A   Mostly Cloudy
1:54 PM 88.0 °F 97.5 °F 75.0 °F 65% 29.99 in 10.0 mi WSW 10.4 mph - N/A   Mostly Cloudy
2:54 PM 87.1 °F 95.4 °F 73.9 °F 65% 29.97 in 10.0 mi West 12.7 mph 19.6 mph N/A   Mostly Cloudy
3:54 PM 84.0 °F 90.2 °F 73.0 °F 69% 29.97 in 10.0 mi WSW 11.5 mph 18.4 mph N/A   Mostly Cloudy
4:54 PM 80.1 °F 83.6 °F 71.1 °F 74% 29.98 in 10.0 mi West 8.1 mph - 0.00 in   Mostly Cloudy
5:54 PM 82.0 °F 87.4 °F 73.0 °F 74% 29.96 in 10.0 mi West 3.5 mph - N/A   Mostly Cloudy
6:54 PM 82.9 °F 89.4 °F 73.9 °F 74% 29.94 in 10.0 mi WSW 6.9 mph - N/A   Mostly Cloudy
7:54 PM 82.0 °F 88.6 °F 75.0 °F 79% 29.93 in 10.0 mi SSW 5.8 mph - N/A   Mostly Cloudy
8:54 PM 81.0 °F 87.3 °F 75.9 °F 85% 29.93 in 9.0 mi SSW 5.8 mph - N/A   Overcast
9:54 PM 81.0 °F 86.7 °F 75.0 °F 82% 29.94 in 10.0 mi SSW 6.9 mph - N/A   Mostly Cloudy
10:54 PM 80.1 °F 84.5 °F 73.9 °F 81% 29.94 in 10.0 mi SSW 9.2 mph - N/A   Overcast
11:54 PM 78.1 °F - 73.9 °F 87% 29.93 in 9.0 mi SSW 8.1 mph - N/A   Mostly Cloudy